Location: Armidale
(30.5016°S, 151.6662°E)
Time: 10:47:46
(UTC+10:00)

N. Korean satellite - Pass Details

Date: 22 May 2021
Orbit: 450 x 500 km, 97.2° (Epoch: 13 June)

Event Time Altitude Azimuth Distance (km) Brightness Sun altitude
Rises 04:32:32 0° 13° (NNE) 2,486 10.4 -26.4°
Reaches altitude 10° 04:34:32 10° 13° (NNE) 1,627 9.5 -26.0°
Enters shadow 04:35:23 17° 13° (NNE) 1,274 8.9 -25.8°
